BEIDOU-3 M14

Last updated on Sun Jul 06 2025 00:02:32 GMT+0000 (Coordinated Universal Time)

1 43623U 18072B 25185.99155409 -.00000077 00000+0 00000+0 0 9992 2 43623 56.3170 74.1374 0005425 358.2127 1.8276 1.86231560 46187
UTC large
Height (km)
Speed (km/s)
/
Latitude / Longitude
Inclination (degrees)
Orbital Period (minutes)
Azimuth
Elevation
Range (km)
Doppler Factor

Next 0 passes for location: London (51.5072 / 0.1276)

Sorry there are no passes over London.